Weather History for EGMH - November, 2012

Change the Weather History Date:

Sunday, November 4, 2012

  Actual Average Record
Temperature  
Mean Temperature 44 °F -  
Max Temperature 48 °F - - ()
Min Temperature 40 °F - - ()
Degree Days  
Heating Degree Days 21    
Moisture  
Dew Point 41 °F    
Average Humidity 89    
Maximum Humidity 100    
Minimum Humidity 77    
Precipitation  
Precipitation 0.28 in - - ()
Sea Level Pressure  
Sea Level Pressure 29.29 in    
Wind  
Wind Speed 14 mph ()    
Max Wind Speed 31 mph    
Max Gust Speed 39 mph    
Visibility 6.8 miles    
Events Rain    
T = Trace of Precipitation, MM = Missing Value Source: Averaged Metar Reports

Daily Weather History Graph

Daily Weather History Graph

Search for Another Location

Airport or City:

Trip Planner

Search our weather history database for the weather conditions in past years. The results will help you decide how hot, cold, wet, or windy it might be!

Date:

Astronomy

Nov. 04, 2012 Rise Set
Actual Time 6:53 AM GMT 4:22 PM GMT
Civil Twilight 6:18 AM GMT 4:57 PM GMT
Nautical Twilight 5:38 AM GMT 5:37 PM GMT
Astronomical Twilight 4:59 AM GMT 6:15 PM GMT
Moon 8:38 PM GMT 11:36 AM GMT
Length of Visible Light 10h 39m
Length of Day
9h 28m
Waning Gibbous, 74% of the Moon is Illuminated
Nov 4
Waning Gibbous
Nov 7
Last Quarter
Nov 13
New
Nov 20
First Quarter
Nov 28
Full

Hourly Weather History & Observations

Time (GMT) Temp. Windchill Dew Point Humidity Pressure Visibility Wind Dir Wind Speed Gust Speed Precip Events Conditions
2:50 AM 42 °F - 39 °F 87% 29.52 in 31 mi South 4.6 mph - -  
5:50 AM 45 °F - 45 °F 100% 29.44 in 13 mi South 8.1 mph - - Rain Rain
6:50 AM 44.6 °F 38.8 °F 42.8 °F 93% 29.39 in 6.2 mi South 11.5 mph - N/A   Partly Cloudy
7:20 AM 44.6 °F 39.2 °F 42.8 °F 93% 29.39 in 6.2 mi SSE 10.4 mph - N/A   Partly Cloudy
7:50 AM 46.4 °F 40.7 °F 42.8 °F 87% 29.36 in 6.2 mi SE 12.7 mph - N/A   Mostly Cloudy
8:20 AM 46.4 °F 40.1 °F 42.8 °F 87% 29.33 in 6.2 mi SE 15.0 mph - N/A   Mostly Cloudy
8:50 AM 46 °F - 46 °F 97% 29.33 in 5 mi SE 18.4 mph - - Rain Rain Showers
8:50 AM 46.4 °F 40.4 °F 42.8 °F 87% 29.33 in 5.0 mi SE 13.8 mph - N/A Rain Light Rain
9:20 AM 44.6 °F 36.6 °F 42.8 °F 93% 29.30 in 5.0 mi SE 19.6 mph - N/A Rain Rain
9:50 AM 44.6 °F 36.4 °F 42.8 °F 93% 29.27 in 6.2 mi SE 20.7 mph - N/A Rain Light Rain
10:20 AM 46.4 °F 38.3 °F 42.8 °F 87% 29.24 in 6.2 mi SSE 23.0 mph 35.7 mph N/A Rain Light Rain
10:50 AM 46.4 °F 38.3 °F 44.6 °F 93% 29.21 in 4.3 mi SSE 23.0 mph - N/A Rain Rain
11:20 AM 46.4 °F 38.5 °F 44.6 °F 93% 29.18 in 4.3 mi SSE 21.9 mph - N/A Rain Rain
11:50 AM 48 °F - 46 °F 89% 29.17 in 16 mi South 17.3 mph - - Rain Rain
11:50 AM 48.2 °F - 42.8 °F 82% 29.15 in 6.2 mi SSW 24.2 mph 35.7 mph N/A Rain Light Rain
12:20 PM 46.4 °F 37.5 °F 41.0 °F 81% 29.15 in 6.2 mi SSW 27.6 mph - N/A   Mostly Cloudy
12:50 PM 44.6 °F 35.9 °F 41.0 °F 87% 29.15 in 6.2 mi SW 23.0 mph - N/A Rain Rain Showers
1:20 PM 44.6 °F 36.1 °F 42.8 °F 93% 29.18 in 6.2 mi SW 21.9 mph - N/A   Mostly Cloudy
1:50 PM 46.4 °F 39.8 °F 42.8 °F 87% 29.18 in 6.2 mi SW 16.1 mph - N/A   Mostly Cloudy
2:20 PM 44.6 °F 36.1 °F 41.0 °F 87% 29.21 in 6.2 mi WSW 21.9 mph - N/A   Scattered Clouds
2:50 PM 44 °F - 39 °F 77% 29.27 in 25 mi WSW 31.1 mph - -   Scattered Clouds
2:50 PM 44.6 °F 35.3 °F 39.2 °F 81% 29.24 in 6.2 mi WSW 26.5 mph 39.1 mph N/A   Scattered Clouds
3:20 PM 42.8 °F 33.8 °F 39.2 °F 87% 29.27 in 6.2 mi WSW 21.9 mph - N/A   Partly Cloudy
3:50 PM 41.0 °F 31.4 °F 37.4 °F 87% 29.27 in 6.2 mi WSW 21.9 mph - N/A   Partly Cloudy
4:20 PM 41.0 °F 31.9 °F 37.4 °F 87% 29.30 in 6.2 mi WSW 19.6 mph - N/A   Scattered Clouds
4:50 PM 41.0 °F 33.1 °F 37.4 °F 87% 29.33 in 6.2 mi WSW 15.0 mph - N/A   Scattered Clouds
5:20 PM 41.0 °F 33.9 °F 37.4 °F 87% 29.36 in 6.2 mi WSW 12.7 mph - N/A   Mostly Cloudy
5:50 PM 40 °F - 38 °F 91% 29.37 in 31 mi West 18.4 mph - -   Mostly Cloudy
5:50 PM 41.0 °F 31.9 °F 37.4 °F 87% 29.36 in 6.2 mi West 19.6 mph - N/A   Mostly Cloudy
8:50 PM 40 °F - 39 °F 95% 29.41 in 15 mi WSW 11.5 mph - -   Overcast
11:50 PM 40 °F - 40 °F 100% 29.46 in 6 mi West 10.4 mph - -   Mostly Cloudy